Weather Roundup
Issued by NWS Chicago, IL

Home | Current Version | Previous Version | Graphics & Text | Print | Product List | Glossary On
Versions: 1 2 3 4 5 6 7 8 9 10 11 12 13 14 15 16 17 18 19 20 21 22 23 24 25 26 27 28 29 30 31 32 33 34 35 36 37 38 39 40 41 42 43 44 45 46 47 48 49 50
000
NZUS59 KLOT 020100
HRRLOT

CHICAGO AREA WEATHER ROUNDUP
NATIONAL WEATHER SERVICE CHICAGO/ROMEOVILLE IL
800 PM CDT FRI AUG 01 2014

NOTE: "FAIR" INDICATES FEW OR NO CLOUDS BELOW 12,000 FEET WITH NO
SIGNIFICANT WEATHER AND/OR OBSTRUCTIONS TO VISIBILITY.

* THESE STATIONS ARE NOT UNDER NWS QUALITY CONTROL. THEY ALSO MAY NOT
  REPORT WEATHER SUCH AS PRECIPITATION OR FOG.

ILZ005-006-012>014-019>023-020200-
NORTHEAST ILLINOIS

CITY           SKY/WX    TMP DP  RH WIND       PRES   REMARKS
OHARE          MOCLDY    72  57  59 SW9       30.09R
MIDWAY         CLOUDY    72  60  66 SW9       30.08R
AURORA         CLOUDY    68  61  78 SW5       30.10S
WAUKEGAN       MOCLDY    70  59  68 NW10G17   30.09R
DUPAGE AIRPORT CLOUDY    70  59  68 S8        30.09S
WHEELING       MOCLDY    74  58  57 S3        30.09R
NORTHERLY IS     N/A     74  55  51 SW7         N/A
$$

WIZ051-052-058>065-066-070>072-020200-
SOUTHEAST WISCONSIN

CITY           SKY/WX    TMP DP  RH WIND       PRES   REMARKS
MILWAUKEE      TSTM      66  55  67 S10       30.10F
KENOSHA*       CLOUDY    68  58  70 N15G21    30.12R
RACINE*        TSTM      65  57  75 N9        30.14R
WAUKESHA       CLOUDY    63  55  77 SE5       30.15R
$$

INZ001>003-010>013-019-020-020200-
NORTHWEST INDIANA

CITY           SKY/WX    TMP DP  RH WIND       PRES   REMARKS
GARY*          MOCLDY    73  55  53 SW3       30.09R
MICHIGAN CITY* NOT AVBL
RENSSELAER*    NOT AVBL
VALPARAISO     CLOUDY    64  61  90 CALM      30.10R
$$

LMZ740>746-020200-
SOUTHERN LAKE MICHIGAN

STATION/POSITION TIME  SKY/WX   TEMP WIND        PRES    VSBY
                                AIR  DIR/SP/G
                 (UTC)          (F)  (DEG/KT/KT) (MB)    (MI)
HARRISON CRIB    0000            74  200/ 11/ 12   N/A
BURNHAM HARBOR   0100            74  250/  6/ 10   N/A
CALUMET HARBOR   0000            74  240/  6/  9 1017.4R
BURNS HARBOR     NOT AVBL
MICHIGAN CITY    0000            73  120/  1/  2   N/A
$$

ABBREVIATIONS USED IN REMARKS
   TC - TEMPERATURE IN CELSIUS
  WCI - WIND CHILL INDEX
   HX - HEAT INDEX
  VSB - VISIBILITY
$$


USA.gov is the U.S. government's official web portal to all federal, state and local government web resources and services.